Time,TemperatureF,DewpointF,PressureIn,WindDirection,WindDirectionDegrees,WindSpeedMPH,WindSpeedGustMPH,Humidity,HourlyPrecipIn,Conditions,Clouds,dailyrainin,SolarRadiationWatts/m^2,SoftwareType,DateUTC
2013-02-02 00:09:00,18.8,6.0,30.36,West,259,2.0,-999.0,58,-99.99,,,0.00,0,weatherlink.com 1.10,2013-02-02 05:09:00,
2013-02-02 00:24:00,18.7,6.0,30.35,NNW,337,4.0,-999.0,58,-99.99,,,0.00,0,weatherlink.com 1.10,2013-02-02 05:24:00,
2013-02-02 00:39:00,18.6,6.0,30.36,NW,313,0.0,-999.0,57,-99.99,,,0.00,0,weatherlink.com 1.10,2013-02-02 05:39:00,
2013-02-02 00:54:00,18.4,6.0,30.36,NNW,345,0.0,-999.0,59,-99.99,,,0.00,0,weatherlink.com 1.10,2013-02-02 05:54:00,
2013-02-02 01:24:00,17.9,6.0,30.36,WSW,237,1.0,-999.0,59,-99.99,,,0.00,0,weatherlink.com 1.10,2013-02-02 06:24:00,
2013-02-02 01:40:00,17.7,6.0,30.37,NNW,335,0.0,-999.0,60,-99.99,,,0.00,0,weatherlink.com 1.10,2013-02-02 06:40:00,
2013-02-02 01:55:00,17.5,6.0,30.38,NW,317,1.0,-999.0,61,-99.99,,,0.00,0,weatherlink.com 1.10,2013-02-02 06:55:00,
2013-02-02 02:24:00,17.3,6.0,30.38,WNW,302,4.0,-999.0,61,-99.99,,,0.00,0,weatherlink.com 1.10,2013-02-02 07:24:00,
2013-02-02 02:55:00,16.7,6.0,30.38,West,274,2.0,-999.0,62,-99.99,,,0.00,0,weatherlink.com 1.10,2013-02-02 07:55:00,
2013-02-02 03:10:00,16.5,5.0,30.38,WSW,254,0.0,-999.0,61,-99.99,,,0.00,0,weatherlink.com 1.10,2013-02-02 08:10:00,
2013-02-02 03:25:00,16.4,5.0,30.37,NNW,336,4.0,-999.0,61,-99.99,,,0.00,0,weatherlink.com 1.10,2013-02-02 08:25:00,
2013-02-02 03:40:00,16.3,5.0,30.36,WNW,289,1.0,-999.0,61,-99.99,,,0.00,0,weatherlink.com 1.10,2013-02-02 08:40:00,
2013-02-02 03:55:00,16.2,5.0,30.36,WNW,300,0.0,-999.0,61,-99.99,,,0.00,0,weatherlink.com 1.10,2013-02-02 08:55:00,
2013-02-02 04:10:00,16.0,5.0,30.36,SW,234,0.0,-999.0,62,-99.99,,,0.00,0,weatherlink.com 1.10,2013-02-02 09:10:00,
2013-02-02 04:25:00,15.7,5.0,30.36,West,280,1.0,-999.0,62,-99.99,,,0.00,0,weatherlink.com 1.10,2013-02-02 09:25:00,
2013-02-02 04:55:00,15.5,5.0,30.36,NNW,336,3.0,-999.0,64,-99.99,,,0.00,0,weatherlink.com 1.10,2013-02-02 09:55:00,
2013-02-02 05:10:00,15.5,5.0,30.36,WSW,252,0.0,-999.0,64,-99.99,,,0.00,0,weatherlink.com 1.10,2013-02-02 10:10:00,
2013-02-02 05:25:00,15.3,5.0,30.36,NNW,338,1.0,-999.0,65,-99.99,,,0.00,0,weatherlink.com 1.10,2013-02-02 10:25:00,
2013-02-02 05:40:00,15.3,6.0,30.36,North,360,0.0,-999.0,66,-99.99,,,0.00,0,weatherlink.com 1.10,2013-02-02 10:40:00,
2013-02-02 05:55:00,15.3,6.0,30.36,WNW,284,0.0,-999.0,66,-99.99,,,0.00,0,weatherlink.com 1.10,2013-02-02 10:55:00,
2013-02-02 06:40:00,14.8,6.0,30.36,SW,216,0.0,-999.0,68,-99.99,,,0.00,0,weatherlink.com 1.10,2013-02-02 11:40:00,
2013-02-02 06:55:00,14.4,6.0,30.36,SW,216,0.0,-999.0,68,-99.99,,,0.00,0,weatherlink.com 1.10,2013-02-02 11:55:00,
2013-02-02 07:25:00,13.7,6.0,30.36,SW,216,0.0,-999.0,71,-99.99,,,0.00,11,weatherlink.com 1.10,2013-02-02 12:25:00,
2013-02-02 07:40:00,13.6,6.0,30.36,SW,216,0.0,-999.0,72,-99.99,,,0.00,16,weatherlink.com 1.10,2013-02-02 12:40:00,
2013-02-02 07:55:00,13.8,6.0,30.36,SW,217,2.0,-999.0,72,-99.99,,,0.00,21,weatherlink.com 1.10,2013-02-02 12:55:00,
2013-02-02 08:10:00,14.3,7.0,30.37,WSW,249,1.0,-999.0,72,-99.99,,,0.00,26,weatherlink.com 1.10,2013-02-02 13:10:00,
2013-02-02 08:25:00,15.7,7.0,30.37,SW,232,6.0,-999.0,69,-99.99,,,0.00,32,weatherlink.com 1.10,2013-02-02 13:25:00,
2013-02-02 08:40:00,16.7,7.0,30.37,WSW,252,2.0,-999.0,65,-99.99,,,0.00,53,weatherlink.com 1.10,2013-02-02 13:40:00,
2013-02-02 08:55:00,17.3,7.0,30.36,SW,232,2.0,-999.0,63,-99.99,,,0.00,209,weatherlink.com 1.10,2013-02-02 13:55:00,
2013-02-02 09:10:00,18.3,7.0,30.36,NW,311,6.0,-999.0,61,-99.99,,,0.00,236,weatherlink.com 1.10,2013-02-02 14:10:00,
2013-02-02 09:25:00,19.2,7.0,30.34,WSW,244,3.0,-999.0,58,-99.99,,,0.00,114,weatherlink.com 1.10,2013-02-02 14:25:00,
2013-02-02 09:40:00,19.7,6.0,30.35,West,262,4.0,-999.0,56,-99.99,,,0.00,132,weatherlink.com 1.10,2013-02-02 14:40:00,
2013-02-02 09:55:00,20.9,7.0,30.34,ESE,107,4.0,-999.0,55,-99.99,,,0.00,221,weatherlink.com 1.10,2013-02-02 14:55:00,
2013-02-02 10:10:00,21.5,7.0,30.34,West,279,5.0,-999.0,54,-99.99,,,0.00,158,weatherlink.com 1.10,2013-02-02 15:10:00,
2013-02-02 10:25:00,22.0,7.0,30.34,SW,217,2.0,-999.0,52,-99.99,,,0.00,471,weatherlink.com 1.10,2013-02-02 15:25:00,
2013-02-02 10:40:00,22.5,7.0,30.34,NW,325,4.0,-999.0,52,-99.99,,,0.00,330,weatherlink.com 1.10,2013-02-02 15:40:00,
2013-02-02 10:55:00,23.4,7.0,30.34,West,275,1.0,-999.0,50,-99.99,,,0.00,392,weatherlink.com 1.10,2013-02-02 15:55:00,
2013-02-02 11:10:00,23.0,7.0,30.33,SW,225,8.0,-999.0,50,-99.99,,,0.00,345,weatherlink.com 1.10,2013-02-02 16:10:00,
2013-02-02 11:25:00,23.1,7.0,30.32,West,276,6.0,-999.0,51,-99.99,,,0.00,366,weatherlink.com 1.10,2013-02-02 16:25:00,
2013-02-02 11:40:00,23.7,7.0,30.31,West,265,4.0,-999.0,50,-99.99,,,0.00,387,weatherlink.com 1.10,2013-02-02 16:40:00,
2013-02-02 11:55:00,24.6,8.0,30.30,WSW,252,2.0,-999.0,50,-99.99,,,0.00,336,weatherlink.com 1.10,2013-02-02 16:55:00,
2013-02-02 12:40:00,25.3,8.0,30.27,WSW,244,5.0,-999.0,49,-99.99,,,0.00,396,weatherlink.com 1.10,2013-02-02 17:40:00,
2013-02-02 12:55:00,25.4,8.0,30.26,WSW,248,10.0,-999.0,48,-99.99,,,0.00,315,weatherlink.com 1.10,2013-02-02 17:55:00,
2013-02-02 13:25:00,25.4,10.0,30.24,SSW,212,2.0,-999.0,53,-99.99,,,0.00,265,weatherlink.com 1.10,2013-02-02 18:25:00,
2013-02-02 13:40:00,25.4,9.0,30.24,South,189,5.0,-999.0,51,-99.99,,,0.00,271,weatherlink.com 1.10,2013-02-02 18:40:00,
2013-02-02 13:55:00,25.2,10.0,30.23,WSW,237,5.0,-999.0,52,-99.99,,,0.00,264,weatherlink.com 1.10,2013-02-02 18:55:00,
2013-02-02 14:25:00,24.8,10.0,30.21,West,269,0.0,-999.0,53,-99.99,,,0.00,188,weatherlink.com 1.10,2013-02-02 19:25:00,
2013-02-02 14:40:00,25.3,11.0,30.21,SW,233,9.0,-999.0,54,-99.99,,,0.00,179,weatherlink.com 1.10,2013-02-02 19:40:00,
2013-02-02 14:55:00,25.1,11.0,30.20,SW,236,7.0,-999.0,55,-99.99,,,0.00,192,weatherlink.com 1.10,2013-02-02 19:55:00,
2013-02-02 15:10:00,25.3,11.0,30.19,SW,217,5.0,-999.0,54,-99.99,,,0.00,163,weatherlink.com 1.10,2013-02-02 20:10:00,
2013-02-02 15:25:00,25.5,11.0,30.19,WSW,238,4.0,-999.0,54,-99.99,,,0.00,121,weatherlink.com 1.10,2013-02-02 20:25:00,
2013-02-02 15:40:00,25.5,12.0,30.18,WSW,245,3.0,-999.0,58,-99.99,,,0.00,104,weatherlink.com 1.10,2013-02-02 20:40:00,
2013-02-02 15:55:00,25.4,12.0,30.18,WSW,240,4.0,-999.0,58,-99.99,,,0.00,69,weatherlink.com 1.10,2013-02-02 20:55:00,
2013-02-02 16:10:00,24.9,13.0,30.18,WSW,244,5.0,-999.0,62,-99.99,,,0.00,44,weatherlink.com 1.10,2013-02-02 21:10:00,
2013-02-02 16:25:00,24.6,15.0,30.18,SW,215,3.0,-999.0,67,-99.99,,,0.00,26,weatherlink.com 1.10,2013-02-02 21:25:00,
2013-02-02 16:40:00,23.8,16.0,30.18,SW,222,4.0,-999.0,73,-99.99,,,0.00,26,weatherlink.com 1.10,2013-02-02 21:40:00,
2013-02-02 16:55:00,23.4,17.0,30.17,West,262,2.0,-999.0,76,-99.99,,,0.00,16,weatherlink.com 1.10,2013-02-02 21:55:00,
2013-02-02 17:09:00,23.2,17.0,30.16,SSW,207,1.0,-999.0,77,-99.99,,,0.00,5,weatherlink.com 1.10,2013-02-02 22:09:00,
2013-02-02 17:24:00,23.0,17.0,30.15,SW,218,3.0,-999.0,78,-99.99,,,0.00,0,weatherlink.com 1.10,2013-02-02 22:24:00,
2013-02-02 17:39:00,22.9,17.0,30.15,SW,216,5.0,-999.0,79,-99.99,,,0.00,0,weatherlink.com 1.10,2013-02-02 22:39:00,
2013-02-02 17:54:00,22.9,17.0,30.15,SW,221,4.0,-999.0,79,-99.99,,,0.00,0,weatherlink.com 1.10,2013-02-02 22:54:00,
2013-02-02 18:10:00,23.0,18.0,30.14,SW,229,3.0,-999.0,80,-99.99,,,0.00,0,weatherlink.com 1.10,2013-02-02 23:10:00,
2013-02-02 18:25:00,23.1,18.0,30.14,SSW,212,2.0,-999.0,81,-99.99,,,0.00,0,weatherlink.com 1.10,2013-02-02 23:25:00,
2013-02-02 18:40:00,23.1,19.0,30.15,SSW,213,1.0,-999.0,83,-99.99,,,0.00,0,weatherlink.com 1.10,2013-02-02 23:40:00,
2013-02-02 18:55:00,23.0,19.0,30.15,SW,220,2.0,-999.0,85,-99.99,,,0.00,0,weatherlink.com 1.10,2013-02-02 23:55:00,
2013-02-02 19:09:00,23.0,19.0,30.14,SW,224,1.0,-999.0,86,-99.99,,,0.00,0,weatherlink.com 1.10,2013-02-03 00:09:00,
2013-02-02 19:25:00,23.1,20.0,30.15,SW,224,0.0,-999.0,87,-99.99,,,0.00,0,weatherlink.com 1.10,2013-02-03 00:25:00,
2013-02-02 19:40:00,23.1,20.0,30.14,SW,224,0.0,-999.0,87,-99.99,,,0.00,0,weatherlink.com 1.10,2013-02-03 00:40:00,
2013-02-02 19:55:00,23.2,20.0,30.14,SW,224,0.0,-999.0,88,-99.99,,,0.00,0,weatherlink.com 1.10,2013-02-03 00:55:00,
2013-02-02 20:10:00,23.3,20.0,30.14,SW,224,0.0,-999.0,88,-99.99,,,0.00,0,weatherlink.com 1.10,2013-02-03 01:10:00,
2013-02-02 20:25:00,23.4,20.0,30.14,SW,224,0.0,-999.0,88,-99.99,,,0.00,0,weatherlink.com 1.10,2013-02-03 01:25:00,
2013-02-02 20:40:00,23.5,21.0,30.14,SW,224,1.0,-999.0,89,-99.99,,,0.00,0,weatherlink.com 1.10,2013-02-03 01:40:00,
2013-02-02 20:55:00,23.5,21.0,30.13,SW,224,0.0,-999.0,89,-99.99,,,0.00,0,weatherlink.com 1.10,2013-02-03 01:55:00,
2013-02-02 21:10:00,23.6,21.0,30.13,SW,224,1.0,-999.0,89,-99.99,,,0.00,0,weatherlink.com 1.10,2013-02-03 02:10:00,
2013-02-02 21:25:00,23.7,21.0,30.13,SW,224,0.0,-999.0,89,-99.99,,,0.00,0,weatherlink.com 1.10,2013-02-03 02:25:00,
2013-02-02 21:40:00,23.7,21.0,30.12,SW,224,0.0,-999.0,90,-99.99,,,0.00,0,weatherlink.com 1.10,2013-02-03 02:40:00,
2013-02-02 21:55:00,23.7,21.0,30.11,SW,224,0.0,-999.0,90,-99.99,,,0.00,0,weatherlink.com 1.10,2013-02-03 02:55:00,
2013-02-02 22:25:00,23.7,21.0,30.10,SW,224,1.0,-999.0,90,-99.99,,,0.00,0,weatherlink.com 1.10,2013-02-03 03:25:00,
2013-02-02 22:40:00,23.7,21.0,30.09,SW,224,0.0,-999.0,90,-99.99,,,0.00,0,weatherlink.com 1.10,2013-02-03 03:40:00,
2013-02-02 22:55:00,23.6,21.0,30.09,SW,224,1.0,-999.0,90,-99.99,,,0.00,0,weatherlink.com 1.10,2013-02-03 03:55:00,
2013-02-02 23:10:00,23.5,21.0,30.08,SW,224,1.0,-999.0,90,-99.99,,,0.00,0,weatherlink.com 1.10,2013-02-03 04:10:00,
2013-02-02 23:25:00,23.5,21.0,30.08,SW,224,0.0,-999.0,90,-99.99,,,0.00,0,weatherlink.com 1.10,2013-02-03 04:25:00,
2013-02-02 23:40:00,23.5,21.0,30.09,SW,224,0.0,-999.0,90,-99.99,,,0.00,0,weatherlink.com 1.10,2013-02-03 04:40:00,
2013-02-02 23:55:00,23.5,21.0,30.08,SW,224,0.0,-999.0,90,-99.99,,,0.00,0,weatherlink.com 1.10,2013-02-03 04:55:00,